TimeCDT,TemperatureF,Dew PointF,Humidity,Sea Level PressureIn,VisibilityMPH,Wind Direction,Wind SpeedMPH,Gust SpeedMPH,PrecipitationIn,Events,Conditions,WindDirDegrees,DateUTC
12:53 AM,45.0,21.9,40,30.07,10.0,North,24.2,32.2,N/A,,Scattered Clouds,10,2013-10-05 05:53:00
1:53 AM,44.1,23.0,43,30.07,10.0,NNE,20.7,28.8,N/A,,Overcast,20,2013-10-05 06:53:00
2:53 AM,43.0,21.9,43,30.09,10.0,NNE,16.1,25.3,N/A,,Mostly Cloudy,30,2013-10-05 07:53:00
3:53 AM,42.1,21.9,45,30.09,10.0,NNE,12.7,-,N/A,,Mostly Cloudy,30,2013-10-05 08:53:00
4:53 AM,43.0,21.9,43,30.10,10.0,North,11.5,-,N/A,,Overcast,10,2013-10-05 09:53:00
5:53 AM,44.1,21.9,42,30.12,10.0,North,12.7,-,N/A,,Mostly Cloudy,360,2013-10-05 10:53:00
6:53 AM,43.0,19.9,40,30.14,10.0,NNE,15.0,-,N/A,,Overcast,20,2013-10-05 11:53:00
7:53 AM,43.0,21.0,42,30.18,10.0,North,15.0,-,N/A,,Overcast,350,2013-10-05 12:53:00
8:53 AM,42.1,21.9,45,30.19,10.0,North,11.5,-,N/A,,Partly Cloudy,350,2013-10-05 13:53:00
9:53 AM,48.0,21.0,34,30.20,10.0,North,12.7,-,N/A,,Clear,360,2013-10-05 14:53:00
10:53 AM,50.0,19.9,31,30.20,10.0,North,12.7,-,N/A,,Clear,10,2013-10-05 15:53:00
11:53 AM,53.1,21.0,29,30.19,10.0,Variable,6.9,-,N/A,,Clear,0,2013-10-05 16:53:00
12:53 PM,57.0,21.0,25,30.18,10.0,NW,9.2,-,N/A,,Clear,310,2013-10-05 17:53:00
1:53 PM,59.0,19.9,22,30.16,10.0,Variable,3.5,17.3,N/A,,Clear,0,2013-10-05 18:53:00
2:53 PM,63.0,19.9,19,30.12,10.0,West,10.4,16.1,N/A,,Clear,280,2013-10-05 19:53:00
3:53 PM,63.0,21.0,20,30.09,10.0,SW,5.8,-,N/A,,Clear,230,2013-10-05 20:53:00
4:53 PM,64.0,19.0,18,30.07,10.0,Variable,6.9,-,N/A,,Clear,0,2013-10-05 21:53:00
5:53 PM,66.0,12.9,13,30.06,10.0,NNW,11.5,-,N/A,,Clear,330,2013-10-05 22:53:00
6:53 PM,64.0,14.0,14,30.08,10.0,NNW,10.4,-,N/A,,Clear,340,2013-10-05 23:53:00
7:53 PM,55.0,16.0,22,30.12,10.0,NNE,6.9,-,N/A,,Clear,20,2013-10-06 00:53:00
8:53 PM,54.0,15.1,22,30.15,10.0,North,3.5,-,N/A,,Clear,360,2013-10-06 01:53:00
9:53 PM,42.1,19.9,41,30.18,8.0,Calm,Calm,-,N/A,,Clear,0,2013-10-06 02:53:00
10:53 PM,42.1,23.0,47,30.18,6.0,West,5.8,-,N/A,,Haze,280,2013-10-06 03:53:00
11:53 PM,43.0,23.0,45,30.17,6.0,West,6.9,-,N/A,,Haze,270,2013-10-06 04:53:00